[[{"header":{"parameterUnit":"m.s-1","parameterCategory":1,"la1":30.2991,"la2":30.254,"lo1":-89.0895,"lo2":-89.0444,"dy":0.0017,"dx":0.0017,"nx":28,"ny":28,"refTime":"2025-07-22T21:00:00:Z","depth":0,"parameterNumber":2,"parameterNumberName":"U-component_of_WINDS"},"data":[0,0,0,0,0,0,0,0,0,0,0,0,0,0,0,0,0,0,0,0,0,0,0,0,0,0,0,0,0,0,0,0,0,0,0,0,0,0,0,0,0,0,0,0,0,0,0,0,0,0,0,0,0,0,0,0,0,0,2.2409,2.241,0,2.2459,2.2459,2.246,2.2366,2.2363,2.2359,2.2356,2.2413,2.2417,2.2421,0,0,0,0,0,0,0,0,0,0,0,0,0,2.224,2.2243,2.2409,2.241,2.241,2.2458,2.2459,2.246,2.2366,2.2362,2.2359,2.2355,2.2411,2.2416,2.2422,0,0,0,0,0,0,0,0,0,0,0,0,0,2.2304,2.2244,2.2409,2.2369,2.2366,2.2458,2.2459,2.246,2.2367,2.2362,2.2358,2.2353,2.2409,2.2416,2.2422,2.2557,0,0,2.2443,2.2445,0,0,0,0,0,0,0,0,2.23,2.231,2.2374,2.2372,2.2369,2.2401,2.242,2.2493,2.2368,2.2367,2.2356,2.2351,2.2413,2.2419,2.2439,2.256,2.2562,2.2443,2.2447,2.245,2.2452,0,0,0,0,0,0,0,2.2296,2.2307,2.2429,2.2376,2.2372,2.2351,2.2355,2.2433,2.2416,2.2367,2.236,2.2367,2.241,2.2433,2.2439,2.2563,2.2443,2.2449,2.2453,2.2455,2.28,2.2805,0,0,0,0,0,0,2.2296,2.2304,2.2427,2.243,2.2322,2.2358,2.2362,2.2396,2.2415,2.2413,2.2371,2.2362,2.2424,2.2432,2.2441,2.2602,2.245,2.2456,2.246,2.2795,2.2802,2.2807,0,0,0,0,0,0,2.2292,2.2307,2.2425,2.2366,2.2379,2.2366,2.2404,2.2399,2.2421,2.2418,2.2415,2.2396,2.242,2.2432,2.2529,2.2603,2.2459,2.2465,2.2789,2.2797,2.2804,2.2925,0,0,0,0,0,0,2.2288,2.2307,2.2356,2.2367,2.2382,2.2511,2.2408,2.2403,2.2432,2.2421,2.2441,2.2439,2.2417,2.252,2.2536,2.2609,2.247,2.2783,2.2793,2.2802,2.2914,2.2936,2.2954,0,0,0,0,0,2.2282,2.2389,2.2359,2.2375,2.2444,2.2515,2.2524,2.2495,2.2438,2.2489,2.2487,2.2439,2.2592,2.2531,2.2548,2.2624,2.2778,2.279,2.2801,2.2905,2.2931,2.2953,0,0,0,0,0,0,2.2388,2.2389,2.2357,2.247,2.2493,2.2499,2.2562,2.2523,2.2565,2.2553,2.2517,2.2522,2.2628,2.2636,2.2568,2.2757,2.2675,2.2691,2.2749,2.2774,2.2793,2.279,2.2476,0,0,0,0,0,2.2424,2.2481,2.2479,2.2579,2.2592,2.2576,2.2606,2.2582,2.2605,2.2615,2.262,2.2647,2.2701,2.2737,2.2787,2.2914,2.2919,2.2976,2.2995,2.3012,2.3027,2.3098,2.3124,2.2846,2.2845,2.2845,0,0,2.25,2.2508,2.2546,2.2601,2.2616,2.2678,2.2585,2.2653,2.2699,2.2626,2.2718,2.2724,2.2751,2.2865,2.2915,2.2874,2.3104,2.3027,2.304,2.3046,2.3112,2.3139,2.3162,2.2853,2.2852,2.2851,0,0,2.2671,2.2681,2.2766,2.2784,2.2807,2.2796,2.2817,2.2829,2.283,2.2922,2.2869,2.2924,2.3017,2.3039,2.3063,2.3244,2.3202,2.3261,2.3366,2.3436,2.3458,2.3477,2.3544,2.3569,2.3275,2.3276,2.3276,0,2.2763,2.2851,2.2816,2.2888,2.2915,2.285,2.2938,2.2957,2.2997,2.3018,2.2971,2.3089,2.3102,2.3222,2.3266,2.3286,2.3311,2.3259,2.3457,2.3476,2.3494,2.3557,2.3583,2.3283,2.3282,2.3281,2.3281,0,2.2964,2.3027,2.3093,2.3133,2.3167,2.3247,2.3226,2.3265,2.3239,2.3233,2.3329,2.3343,2.3396,2.3422,2.3396,2.3539,2.3513,2.3462,2.338,2.3528,2.3588,2.3611,2.3293,2.3291,2.3288,2.3287,0,0,2.3203,2.3222,2.3247,2.3265,2.3288,2.3336,2.3415,2.3465,2.3501,2.353,2.3597,2.3678,2.3632,2.3659,2.3636,2.3697,2.3843,2.3638,2.3639,2.3678,2.4004,2.4044,2.4073,2.3814,2.3819,2.3822,2.4003,0,2.3373,2.3506,2.3478,2.361,2.3669,2.3609,2.3678,2.37,2.3698,2.3749,2.3746,2.3806,2.3738,2.3755,2.3812,2.3813,2.3908,2.3799,2.3879,2.3882,2.3876,2.4103,2.4145,2.4315,2.4026,2.4029,2.4032,0,2.359,2.3628,2.3766,2.3781,2.3804,2.3866,2.3911,2.396,2.3986,2.398,2.4011,2.3976,2.4057,2.3972,2.4085,2.4011,2.4042,2.4048,2.4054,2.4062,2.3968,2.412,2.4368,2.4394,2.4068,2.4065,2.4063,0,2.3754,2.3839,2.3933,2.395,2.3969,2.4014,2.4025,2.4045,2.4078,2.4118,2.4139,2.4188,2.4216,2.4256,2.4237,2.4177,2.4355,2.4267,2.4354,2.4355,2.4396,2.4394,2.4655,2.4413,2.4412,2.4412,2.4411,0,2.3948,2.4036,2.4006,2.4065,2.4162,2.4129,2.4227,2.423,2.425,2.4309,2.426,2.4318,2.4288,2.4345,2.433,2.4427,2.444,2.4439,2.4435,2.4445,2.4445,2.4466,2.4455,2.4418,2.4417,2.4416,2.4415,0,2.4148,2.4131,2.423,2.424,2.4245,2.4317,2.4326,2.4382,2.4375,2.4452,2.4468,2.4459,2.4523,2.4507,2.4577,2.4568,2.4691,2.4671,2.4682,2.4678,2.4767,2.476,2.5052,2.509,2.4821,2.4824,2.4826,0,2.4274,2.434,2.4357,2.4393,2.4407,2.4465,2.4498,2.4469,2.4506,2.4541,2.4594,2.4653,2.4699,2.4804,2.4806,2.486,2.4842,2.494,2.485,2.4859,2.4846,2.4844,2.4852,2.4959,2.4962,2.4965,2.4967,0,2.4501,2.449,2.4538,2.4585,2.4626,2.4662,2.4693,2.4726,2.47,2.4744,2.4808,2.4844,2.4915,2.4976,2.5026,2.5039,2.5001,2.4995,2.5019,2.5031,2.5036,2.5037,2.4734,2.4989,2.4987,2.4985,2.4984,2.4983,2.4669,2.4726,2.4747,2.4804,2.4824,2.4856,2.4909,2.4909,2.4962,2.5017,2.4997,2.5071,2.5098,2.5161,2.518,2.524,2.5203,2.5236,2.5245,2.5254,2.5267,2.5025,2.5249,2.5248,2.5247,2.5247,2.5246,0,2.4895,2.4907,2.4959,2.5004,2.505,2.5007,2.504,2.5082,2.5147,2.5174,2.5221,2.5296,2.5355,2.5361,2.5418,2.5464,2.5448,2.5481,2.5478,2.5482,2.5295,2.527,2.5493,2.5493,2.5493,2.5493,2.5493,2.5493,2.5019,2.5113,2.5105,2.5211,2.5221,2.5293,2.5316,2.5345,2.5367,2.5453,2.5501,2.5504,2.5524,2.5582,2.5635,2.5636,2.566,2.57,2.5694,2.552,2.5495,2.5472,2.5448,2.5705,2.5705,2.5877,2.5878,2.588]},{"header":{"parameterUnit":"m.s-1","parameterCategory":1,"la1":30.2991,"la2":30.254,"lo1":-89.0895,"lo2":-89.0444,"dy":0.0017,"dx":0.0017,"nx":28,"ny":28,"refTime":"2025-07-22T21:00:00:Z","depth":0,"parameterNumber":3,"parameterNumberName":"V-component_of_WINDS"},"data":[0,0,0,0,0,0,0,0,0,0,0,0,0,0,0,0,0,0,0,0,0,0,0,0,0,0,0,0,0,0,0,0,0,0,0,0,0,0,0,0,0,0,0,0,0,0,0,0,0,0,0,0,0,0,0,0,0,0,-0.9667,-0.9667,0,-0.9667,-0.9667,-0.9667,-0.9678,-0.9679,-0.9679,-0.9679,-0.9677,-0.9677,-0.9677,0,0,0,0,0,0,0,0,0,0,0,0,0,-0.9676,-0.9676,-0.9667,-0.9667,-0.9667,-0.9667,-0.9667,-0.9667,-0.9678,-0.9679,-0.9679,-0.968,-0.9677,-0.9677,-0.9677,0,0,0,0,0,0,0,0,0,0,0,0,0,-0.9674,-0.9676,-0.9667,-0.9673,-0.9674,-0.9667,-0.9667,-0.9667,-0.9678,-0.9679,-0.9679,-0.968,-0.9677,-0.9677,-0.9676,-0.9664,0,0,-0.9675,-0.9675,0,0,0,0,0,0,0,0,-0.9674,-0.9673,-0.9672,-0.9673,-0.9673,-0.9673,-0.9669,-0.9666,-0.9678,-0.9676,-0.9679,-0.968,-0.9675,-0.9675,-0.9674,-0.9664,-0.9664,-0.9675,-0.9675,-0.9674,-0.9674,0,0,0,0,0,0,0,-0.9674,-0.9673,-0.9667,-0.9672,-0.9673,-0.9675,-0.9675,-0.9669,-0.9673,-0.9677,-0.9677,-0.9677,-0.9676,-0.9674,-0.9674,-0.9664,-0.9675,-0.9674,-0.9674,-0.9674,-0.9644,-0.9643,0,0,0,0,0,0,-0.9673,-0.9673,-0.9667,-0.9667,-0.9675,-0.9675,-0.9675,-0.9673,-0.9673,-0.9674,-0.9677,-0.9678,-0.9675,-0.9675,-0.9674,-0.9659,-0.9674,-0.9674,-0.9674,-0.9644,-0.9643,-0.9643,0,0,0,0,0,0,-0.9674,-0.9673,-0.9667,-0.9671,-0.967,-0.9674,-0.9672,-0.9673,-0.9671,-0.9674,-0.9674,-0.9675,-0.9675,-0.9675,-0.9667,-0.9659,-0.9674,-0.9673,-0.9645,-0.9644,-0.9643,-0.963,0,0,0,0,0,0,-0.9674,-0.9673,-0.9668,-0.967,-0.967,-0.966,-0.9671,-0.9672,-0.9671,-0.9672,-0.9672,-0.9672,-0.9676,-0.9667,-0.9666,-0.9659,-0.9673,-0.9645,-0.9644,-0.9643,-0.9631,-0.9629,-0.9627,0,0,0,0,0,-0.9674,-0.9664,-0.9668,-0.9667,-0.9665,-0.966,-0.9659,-0.9664,-0.967,-0.9665,-0.9667,-0.9672,-0.9661,-0.9666,-0.9665,-0.9658,-0.9646,-0.9645,-0.9643,-0.9632,-0.9629,-0.9627,0,0,0,0,0,0,-0.9661,-0.9665,-0.9669,-0.966,-0.9659,-0.9662,-0.9656,-0.9661,-0.9659,-0.966,-0.9665,-0.9665,-0.9656,-0.9656,-0.9662,-0.9646,-0.9654,-0.9653,-0.9646,-0.9643,-0.9641,-0.9641,-0.9672,0,0,0,0,0,-0.9657,-0.9653,-0.9657,-0.9648,-0.9648,-0.9652,-0.965,-0.9654,-0.9653,-0.9653,-0.9654,-0.9653,-0.9649,-0.9646,-0.9643,-0.9631,-0.9631,-0.9626,-0.9624,-0.9622,-0.9621,-0.9614,-0.9612,-0.9639,-0.9639,-0.9639,0,0,-0.9649,-0.965,-0.9648,-0.9646,-0.9646,-0.9641,-0.9652,-0.9647,-0.9643,-0.9652,-0.9645,-0.9645,-0.9645,-0.9635,-0.963,-0.9635,-0.9613,-0.9621,-0.9619,-0.9619,-0.9613,-0.961,-0.9608,-0.9638,-0.9639,-0.9639,0,0,-0.9631,-0.9632,-0.9625,-0.9626,-0.9626,-0.9629,-0.9627,-0.9629,-0.963,-0.9623,-0.9629,-0.9625,-0.9618,-0.9617,-0.9616,-0.9598,-0.9603,-0.9597,-0.9586,-0.958,-0.9578,-0.9576,-0.9569,-0.9567,-0.9596,-0.9596,-0.9596,0,-0.962,-0.9615,-0.9621,-0.9615,-0.9614,-0.9623,-0.9616,-0.9615,-0.9614,-0.9613,-0.9618,-0.961,-0.961,-0.96,-0.9595,-0.9594,-0.9592,-0.9597,-0.9578,-0.9576,-0.9574,-0.9568,-0.9565,-0.9595,-0.9595,-0.9595,-0.9595,0,-0.9601,-0.9597,-0.9591,-0.9591,-0.9589,-0.9583,-0.9587,-0.9585,-0.9589,-0.9591,-0.9583,-0.9584,-0.958,-0.9579,-0.9582,-0.9569,-0.9571,-0.9577,-0.9585,-0.9571,-0.9565,-0.9563,-0.9594,-0.9594,-0.9594,-0.9595,0,0,-0.9575,-0.9578,-0.9576,-0.9576,-0.9577,-0.9574,-0.9568,-0.9565,-0.9563,-0.9562,-0.9556,-0.9551,-0.9556,-0.9554,-0.9558,-0.9553,-0.9538,-0.9559,-0.9559,-0.9555,-0.9523,-0.9519,-0.9516,-0.9542,-0.9542,-0.9541,-0.9523,0,-0.9558,-0.9548,-0.9553,-0.9542,-0.9538,-0.9547,-0.9542,-0.9542,-0.9544,-0.954,-0.9542,-0.9538,-0.9545,-0.9545,-0.954,-0.9541,-0.9532,-0.9543,-0.9536,-0.9536,-0.9535,-0.9513,-0.9508,-0.9491,-0.9521,-0.9521,-0.952,0,-0.9536,-0.9535,-0.9524,-0.9526,-0.9524,-0.952,-0.9518,-0.9515,-0.9514,-0.9516,-0.9515,-0.952,-0.9513,-0.9522,-0.9513,-0.952,-0.9518,-0.9519,-0.9518,-0.9517,-0.9527,-0.951,-0.9486,-0.9483,-0.9517,-0.9517,-0.9517,0,-0.9517,-0.9513,-0.9506,-0.9505,-0.9508,-0.9504,-0.9505,-0.9505,-0.9504,-0.9502,-0.9501,-0.9498,-0.9496,-0.9494,-0.9498,-0.9504,-0.9488,-0.9497,-0.9489,-0.9488,-0.9484,-0.9484,-0.9458,-0.9484,-0.9484,-0.9484,-0.9484,0,-0.9497,-0.9489,-0.9497,-0.9493,-0.9485,-0.9491,-0.9483,-0.9484,-0.9485,-0.948,-0.9488,-0.9483,-0.9489,-0.9485,-0.9488,-0.948,-0.9479,-0.948,-0.9481,-0.9479,-0.9479,-0.9477,-0.9478,-0.9483,-0.9483,-0.9484,-0.9484,0,-0.9474,-0.9479,-0.9471,-0.9475,-0.9475,-0.9469,-0.9472,-0.9467,-0.947,-0.9465,-0.9464,-0.9468,-0.9463,-0.9467,-0.9463,-0.9465,-0.9454,-0.9457,-0.9454,-0.9455,-0.9445,-0.9446,-0.9416,-0.9413,-0.9442,-0.9441,-0.9441,0,-0.946,-0.9455,-0.9458,-0.9456,-0.9456,-0.9453,-0.9451,-0.9457,-0.9455,-0.9455,-0.945,-0.9447,-0.9444,-0.9437,-0.9439,-0.9436,-0.9438,-0.9428,-0.9437,-0.9436,-0.9437,-0.9437,-0.9436,-0.9426,-0.9425,-0.9425,-0.9425,0,-0.9435,-0.9438,-0.9436,-0.9434,-0.9432,-0.9431,-0.9431,-0.9428,-0.9435,-0.9432,-0.9428,-0.9426,-0.9422,-0.9418,-0.9416,-0.9416,-0.9421,-0.9422,-0.942,-0.9417,-0.9416,-0.9416,-0.9448,-0.9422,-0.9423,-0.9423,-0.9423,-0.9423,-0.9416,-0.9412,-0.9413,-0.9411,-0.9411,-0.941,-0.9406,-0.9409,-0.9406,-0.9404,-0.9407,-0.9402,-0.9402,-0.94,-0.9399,-0.9395,-0.9399,-0.9396,-0.9395,-0.9394,-0.9392,-0.9417,-0.9395,-0.9395,-0.9395,-0.9395,-0.9395,0,-0.9391,-0.9393,-0.939,-0.939,-0.9387,-0.9393,-0.9393,-0.9391,-0.9386,-0.9386,-0.9384,-0.9379,-0.9375,-0.9378,-0.9374,-0.9371,-0.9373,-0.9369,-0.9369,-0.9369,-0.9389,-0.9391,-0.9368,-0.9368,-0.9368,-0.9368,-0.9368,-0.9368,-0.9378,-0.9371,-0.9374,-0.9367,-0.9369,-0.9364,-0.9363,-0.9363,-0.9363,-0.9357,-0.9355,-0.9356,-0.9357,-0.9354,-0.9351,-0.9352,-0.935,-0.9345,-0.9347,-0.9365,-0.9368,-0.937,-0.9372,-0.9345,-0.9345,-0.9327,-0.9327,-0.9327]}]]